Boundary Cnty AP, Bonners Fer, ID

12:57 PM PDT on May 24, 2017 (GMT -0700)
Boundary Cnty AP, Bonners Fer

Weather History for K65S - September, 2013

Change the Weather History Date:

Tuesday, September 24, 2013

  Actual Average (KSZT) Record (KSZT)
Temperature  
Mean Temperature 48 °F -  
Max Temperature 51 °F 66 °F 82 °F (1939)
Min Temperature 44 °F 37 °F 16 °F (1926)
Degree Days  
Heating Degree Days 18    
Moisture  
Dew Point -    
Average Humidity    
Maximum Humidity    
Minimum Humidity    
Precipitation  
Precipitation 0.07 in - - ()
Sea Level Pressure  
Sea Level Pressure 29.83 in    
Wind  
Wind Speed 2 mph (SW)    
Max Wind Speed 9 mph    
Max Gust Speed -    
Visibility 9 miles    
Events Fog , Rain    
Averages and records for this station are not official NWS values.
T = Trace of Precipitation, MM = Missing Value Source: NWS Daily Summary

Daily Weather History Graph

Daily Weather History Graph

Search for Another Location

Airport or City:

Trip Planner

Search our weather history database for the weather conditions in past years. The results will help you decide how hot, cold, wet, or windy it might be!

Date:

Astronomy

Sep. 24, 2013 Rise Set
Actual Time 6:35 AM PDT 6:38 PM PDT
Civil Twilight 6:03 AM PDT 7:09 PM PDT
Nautical Twilight 5:26 AM PDT 7:46 PM PDT
Astronomical Twilight 4:48 AM PDT 8:24 PM PDT
Moon 9:33 PM PDT 12:19 PM PDT
Length of Visible Light 13h 05m
Length of Day
12h 02m
Waning Gibbous, 72% of the Moon is Illuminated
Sep 24
Waning Gibbous
Sep 26
Last Quarter
Oct 4
New
Oct 11
First Quarter
Oct 18
Full

Hourly Weather History & Observations

Time (PDT) Temp. Windchill Dew Point Humidity Pressure Visibility Wind Dir Wind Speed Gust Speed Precip Events Conditions
12:10 AM 51.8 °F - - N/A% 29.90 in 10.0 mi SSW 4.6 mph - N/A   Overcast
12:30 AM 51.8 °F - - N/A% 29.90 in 10.0 mi SSW 5.8 mph - N/A   Overcast
12:50 AM 51.8 °F - - N/A% 29.90 in 10.0 mi South 3.5 mph - N/A   Overcast
1:10 AM 51.8 °F - - N/A% 29.89 in 10.0 mi Calm Calm - N/A   Overcast
1:30 AM 50.0 °F - - N/A% 29.89 in 10.0 mi South 4.6 mph - N/A   Mostly Cloudy
1:50 AM 50.0 °F - - N/A% 29.90 in 10.0 mi South 4.6 mph - N/A   Mostly Cloudy
2:10 AM 50.0 °F - - N/A% 29.90 in 10.0 mi SW 3.5 mph - N/A   Overcast
2:30 AM 48.2 °F - - N/A% 29.89 in 10.0 mi Calm Calm - N/A   Overcast
2:50 AM 50.0 °F - - N/A% 29.89 in 10.0 mi Calm Calm - N/A   Overcast
3:10 AM 50.0 °F - - N/A% 29.89 in 10.0 mi SW 4.6 mph - N/A   Overcast
3:30 AM 50.0 °F - - N/A% 29.89 in 10.0 mi South 5.8 mph - N/A   Overcast
3:50 AM 50.0 °F - - N/A% 29.88 in 10.0 mi SSW 3.5 mph - N/A   Overcast
4:10 AM 50.0 °F - - N/A% 29.88 in 10.0 mi Calm Calm - N/A   Overcast
4:30 AM 50.0 °F - - N/A% 29.88 in 10.0 mi Calm Calm - N/A   Overcast
4:50 AM 50.0 °F - - N/A% 29.87 in 10.0 mi Calm Calm - N/A   Overcast
5:10 AM 50.0 °F - - N/A% 29.87 in 10.0 mi Calm Calm - N/A   Mostly Cloudy
5:30 AM 48.2 °F - - N/A% 29.87 in 10.0 mi Calm Calm - N/A   Scattered Clouds
5:50 AM 48.2 °F - - N/A% 29.87 in 10.0 mi Calm Calm - N/A   Mostly Cloudy
6:10 AM 46.4 °F - - N/A% 29.87 in 10.0 mi Calm Calm - N/A   Mostly Cloudy
6:30 AM 46.4 °F - - N/A% 29.87 in 10.0 mi Calm Calm - N/A   Mostly Cloudy
6:50 AM 46.4 °F 45.2 °F - N/A% 29.87 in 10.0 mi NW 3.5 mph - N/A   Overcast
7:10 AM 46.4 °F - - N/A% 29.87 in 10.0 mi Calm Calm - N/A   Overcast
7:30 AM 46.4 °F - - N/A% 29.86 in 10.0 mi Calm Calm - N/A   Overcast
7:50 AM 46.4 °F - - N/A% 29.86 in 10.0 mi Calm Calm - N/A   Mostly Cloudy
8:10 AM 46.4 °F - - N/A% 29.86 in 10.0 mi Calm Calm - N/A   Overcast
8:30 AM 48.2 °F - - N/A% 29.86 in 10.0 mi Calm Calm - N/A   Overcast
8:50 AM 48.2 °F - - N/A% 29.85 in 10.0 mi Calm Calm - N/A   Overcast
9:10 AM 48.2 °F - - N/A% 29.86 in 10.0 mi Calm Calm - N/A   Overcast
9:30 AM 48.2 °F - - N/A% 29.86 in 10.0 mi Calm Calm - N/A   Overcast
9:50 AM 48.2 °F - - N/A% 29.85 in 10.0 mi Calm Calm - N/A   Overcast
10:10 AM 50.0 °F - - N/A% 29.84 in 10.0 mi ESE 3.5 mph - N/A   Overcast
10:30 AM 50.0 °F - - N/A% 29.84 in 10.0 mi SSW 4.6 mph - N/A   Overcast
10:50 AM 51.8 °F - - N/A% 29.83 in 10.0 mi SSW 4.6 mph - N/A   Overcast
11:10 AM 51.8 °F - - N/A% 29.83 in 10.0 mi Calm Calm - N/A   Mostly Cloudy
11:30 AM 51.8 °F - - N/A% 29.82 in 10.0 mi Calm Calm - N/A   Mostly Cloudy
11:50 AM 51.8 °F - - N/A% 29.82 in 8.0 mi Calm Calm - N/A Rain Light Rain
12:10 PM 50.0 °F - - N/A% 29.82 in 4.0 mi Calm Calm - 0.01 in Rain Light Rain
12:30 PM 50.0 °F - - N/A% 29.81 in 10.0 mi Calm Calm - 0.01 in   Mostly Cloudy
12:50 PM 50.0 °F - - N/A% 29.80 in 7.0 mi ENE 3.5 mph - 0.01 in Rain Light Rain
1:10 PM 50.0 °F - - N/A% 29.80 in 10.0 mi Calm Calm - N/A   Mostly Cloudy
1:30 PM 51.8 °F - - N/A% 29.79 in 10.0 mi Calm Calm - 0.01 in   Overcast
1:50 PM 51.8 °F - - N/A% 29.78 in 10.0 mi Calm Calm - 0.01 in   Mostly Cloudy
2:10 PM 51.8 °F - - N/A% 29.79 in 10.0 mi SSE 3.5 mph - N/A   Mostly Cloudy
2:30 PM 51.8 °F - - N/A% 29.78 in 8.0 mi SSW 3.5 mph - N/A Rain Light Rain
2:50 PM 51.8 °F - - N/A% 29.78 in 10.0 mi South 3.5 mph - N/A   Scattered Clouds
3:10 PM 51.8 °F - - N/A% 29.78 in 10.0 mi SE 3.5 mph - N/A Rain Light Rain
3:30 PM 51.8 °F - - N/A% 29.78 in 10.0 mi SSW 4.6 mph - N/A   Mostly Cloudy
3:50 PM 51.8 °F - - N/A% 29.78 in 10.0 mi Calm Calm - N/A   Overcast
4:10 PM 50.0 °F - - N/A% 29.78 in 6.0 mi SSW 3.5 mph - N/A   Haze
4:30 PM 50.0 °F - - N/A% 29.78 in 9.0 mi Calm Calm - 0.01 in Rain Light Rain
4:50 PM 50.0 °F - - N/A% 29.78 in 10.0 mi WNW 4.6 mph - 0.01 in   Partly Cloudy
5:10 PM 50.0 °F - - N/A% 29.78 in 10.0 mi North 8.1 mph - N/A   Mostly Cloudy
5:30 PM 50.0 °F - - N/A% 29.79 in 10.0 mi North 6.9 mph - N/A   Overcast
5:50 PM 50.0 °F - - N/A% 29.78 in 10.0 mi NNW 5.8 mph - N/A   Overcast
6:10 PM 50.0 °F - - N/A% 29.79 in 10.0 mi North 9.2 mph - N/A   Overcast
6:30 PM 48.2 °F - - N/A% 29.79 in 10.0 mi North 8.1 mph - N/A   Mostly Cloudy
6:50 PM 48.2 °F - - N/A% 29.79 in 10.0 mi North 6.9 mph - N/A   Overcast
7:10 PM 48.2 °F - - N/A% 29.80 in 7.0 mi North 4.6 mph - N/A Rain Light Rain
7:30 PM 48.2 °F - - N/A% 29.81 in 8.0 mi WSW 3.5 mph - 0.02 in Rain Light Rain
7:50 PM 48.2 °F - - N/A% 29.81 in 5.0 mi WSW 3.5 mph - 0.03 in Rain Light Rain
8:10 PM 46.4 °F - - N/A% 29.81 in 10.0 mi Calm Calm - N/A Rain Light Rain
8:30 PM 46.4 °F - - N/A% 29.81 in 10.0 mi Calm Calm - 0.01 in Rain Light Rain
8:50 PM 46.4 °F - - N/A% 29.81 in 4.0 mi Calm Calm - 0.01 in Rain Light Rain
9:10 PM 46.4 °F - - N/A% 29.81 in 10.0 mi Calm Calm - N/A   Overcast
9:30 PM 46.4 °F - - N/A% 29.81 in 10.0 mi Calm Calm - N/A   Overcast
9:50 PM 46.4 °F - - N/A% 29.81 in 10.0 mi Calm Calm - N/A   Overcast
10:10 PM 46.4 °F - - N/A% 29.81 in 10.0 mi Calm Calm - N/A   Overcast
10:30 PM 46.4 °F 45.2 °F - N/A% 29.80 in 0.5 mi South 3.5 mph - N/A Fog Fog
10:50 PM 44.6 °F - - N/A% 29.80 in 0.2 mi Calm Calm - N/A Fog Fog
11:10 PM 44.6 °F - - N/A% 29.80 in 1.5 mi Calm Calm - N/A   Overcast
11:30 PM 44.6 °F - - N/A% 29.80 in 10.0 mi Calm Calm - N/A   Overcast
11:50 PM 44.6 °F - - N/A% 29.80 in 1.8 mi Calm Calm - N/A   Overcast